Flag for Germany Weather past 2 weeks in Bad Vilbel, Hesse, Germany

Now
57 °F

Passing clouds.


Feels Like: 56 °F
Forecast: 35 / 58 °F
Wind: 6 mph from Northeast

Location: Frankfurt / M-Flughafen

Current Time: Apr 18, 2015 at 6:18:41 PM

Latest Report: Apr 18, 2015 at 6:00 PM


Visibility: 44 mi

Pressure: 30.24 "Hg

Humidity: 30%

Dew point: 26 °F

Location of Bad VilbelLocation

Historic Weather in Bad Vilbel — Graph

°F

Bad Vilbel temperature yesterday

Maximum temperature yesterday: 60 °F (at 4:00 PM)
Minimum temperature yesterday: 47 °F (at 11:00 PM)
Average temperature yesterday: 52 °F

Past Weeks' High & Low Weather Summary

 TemperatureHumidityPressure
High77 °F (Apr 15, 6:00 PM)95% (Apr 10, 7:00 AM)30.66 "Hg (Apr 10, 7:00 AM)
Low28 °F (Apr 7, 7:00 AM)23% (Apr 15, 8:00 PM)29.84 "Hg (Apr 16, 7:00 PM)
Average51 °F59%30.24 "Hg
* Reported Apr 3 4:00 PM — Apr 18 4:00 PM, Bad Vilbel, Weather by CustomWeather, © 2015

Note: Actual official high and low records may vary slightly from our data, if they occured in-between our weather recording intervals... More about our weather records

Advertising

Bad Vilbel weather history for previous 24 hours

 ConditionsComfort  
Time TempWeatherWind HumidityBarometerVisibility
4:00 PM
Sat, Apr 18
56 °FPassing clouds.6 mph32%30.27 "Hg43 mi
3:00 PM54 °FScattered clouds.7 mph35%30.28 "Hg43 mi
2:00 PM53 °FScattered clouds.7 mph38%30.29 "Hg40 mi
1:00 PM53 °FScattered clouds.7 mph43%30.30 "Hg37 mi
12:00 PM51 °FScattered clouds.7 mph48%30.30 "Hg31 mi
10:00 AM48 °FPassing clouds.6 mph57%30.28 "Hg28 mi
9:00 AM46 °FPassing clouds.6 mph63%30.28 "Hg28 mi
8:00 AM43 °FScattered clouds.5 mph70%30.27 "Hg28 mi
7:00 AM42 °FPassing clouds.3 mph71%30.25 "Hg28 mi
6:00 AM42 °FPassing clouds.3 mph70%30.23 "Hg31 mi
4:00 AM44 °FPassing clouds.2 mph63%30.22 "Hg37 mi
3:00 AM44 °FPassing clouds.3 mph58%30.21 "Hg37 mi
2:00 AM45 °FPassing clouds.3 mph57%30.20 "Hg37 mi
1:00 AM42 °FPassing clouds.3 mph64%30.19 "Hg37 mi
12:00 AM44 °FPassing clouds.2 mph60%30.16 "Hg37 mi
11:00 PM
Fri, Apr 17
47 °FPassing clouds.2 mph52%30.14 "Hg37 mi
10:00 PM50 °FPassing clouds.3 mph47%30.12 "Hg37 mi
9:00 PM52 °FPassing clouds.6 mph45%30.09 "Hg37 mi
8:00 PM53 °FPartly sunny.7 mph44%30.05 "Hg37 mi
7:00 PM54 °FOvercast.8 mph43%30.02 "Hg37 mi
6:00 PM56 °FOvercast.8 mph39%30.00 "Hg34 mi
Weather by CustomWeather, © 2015

See weather overviewHow to use our weather pages